Time,TemperatureF,DewpointF,PressureIn,WindDirection,WindDirectionDegrees,WindSpeedMPH,WindSpeedGustMPH,Humidity,HourlyPrecipIn,Conditions,Clouds,dailyrainin,SoftwareType,DateUTC
2013-03-14 00:01:00,53.0,34.4,30.26,SE,134,0.0,0.0,49,0.00,,,0.00,WeatherCatV1.02B3,2013-03-14 05:01:00,
2013-03-14 00:06:00,52.9,33.7,30.26,SSE,147,0.0,0.0,48,0.00,,,0.00,WeatherCatV1.02B3,2013-03-14 05:06:00,
2013-03-14 00:11:00,52.8,34.2,30.26,SE,136,0.0,3.0,49,0.00,,,0.00,WeatherCatV1.02B3,2013-03-14 05:11:00,
2013-03-14 00:16:00,52.7,34.1,30.26,SSE,157,0.0,1.0,49,0.00,,,0.00,WeatherCatV1.02B3,2013-03-14 05:16:00,
2013-03-14 00:21:00,52.6,34.0,30.26,SSE,164,3.0,3.0,49,0.00,,,0.00,WeatherCatV1.02B3,2013-03-14 05:21:00,
2013-03-14 00:26:00,52.6,34.0,30.26,SSE,164,2.0,4.0,49,0.00,,,0.00,WeatherCatV1.02B3,2013-03-14 05:26:00,
2013-03-14 00:31:00,52.5,33.9,30.26,East,96,0.0,4.0,49,0.00,,,0.00,WeatherCatV1.02B3,2013-03-14 05:31:00,
2013-03-14 00:36:00,52.4,34.8,30.26,SE,135,0.0,0.0,51,0.00,,,0.00,WeatherCatV1.02B3,2013-03-14 05:36:00,
2013-03-14 00:41:00,52.3,34.7,30.26,ESE,114,0.0,1.0,51,0.00,,,0.00,WeatherCatV1.02B3,2013-03-14 05:41:00,
2013-03-14 00:46:00,52.2,34.1,30.26,SE,131,0.0,1.0,50,0.00,,,0.00,WeatherCatV1.02B3,2013-03-14 05:46:00,
2013-03-14 00:51:00,52.1,34.5,30.26,East,101,0.0,5.0,51,0.00,,,0.00,WeatherCatV1.02B3,2013-03-14 05:51:00,
2013-03-14 00:56:00,52.0,34.4,30.26,SSE,155,0.0,1.0,51,0.00,,,0.00,WeatherCatV1.02B3,2013-03-14 05:56:00,
2013-03-14 01:01:00,51.9,34.8,30.26,SSE,159,0.0,1.0,52,0.00,,,0.00,WeatherCatV1.02B3,2013-03-14 06:01:00,
2013-03-14 01:06:00,51.8,34.3,30.26,SE,142,0.0,2.0,51,0.00,,,0.00,WeatherCatV1.02B3,2013-03-14 06:06:00,
2013-03-14 01:11:00,51.7,34.6,30.26,SE,143,0.0,2.0,52,0.00,,,0.00,WeatherCatV1.02B3,2013-03-14 06:11:00,
2013-03-14 01:16:00,51.7,34.2,30.26,SSE,157,0.0,0.0,51,0.00,,,0.00,WeatherCatV1.02B3,2013-03-14 06:16:00,
2013-03-14 01:21:00,51.6,34.1,30.26,ESE,107,2.0,4.0,51,0.00,,,0.00,WeatherCatV1.02B3,2013-03-14 06:21:00,
2013-03-14 01:26:00,51.6,34.6,30.26,ESE,103,0.0,5.0,52,0.00,,,0.00,WeatherCatV1.02B3,2013-03-14 06:26:00,
2013-03-14 01:31:00,51.5,34.0,30.26,SE,128,0.0,4.0,51,0.00,,,0.00,WeatherCatV1.02B3,2013-03-14 06:31:00,
2013-03-14 01:36:00,51.4,34.4,30.26,SSE,159,0.0,5.0,52,0.00,,,0.00,WeatherCatV1.02B3,2013-03-14 06:36:00,
2013-03-14 01:41:00,51.4,33.9,30.26,SE,142,3.0,3.0,51,0.00,,,0.00,WeatherCatV1.02B3,2013-03-14 06:41:00,
2013-03-14 01:46:00,51.3,34.3,30.26,SE,140,0.0,4.0,52,0.00,,,0.00,WeatherCatV1.02B3,2013-03-14 06:46:00,
2013-03-14 01:51:00,51.2,34.2,30.26,ESE,112,0.0,1.0,52,0.00,,,0.00,WeatherCatV1.02B3,2013-03-14 06:51:00,
2013-03-14 01:56:00,51.2,34.7,30.26,ESE,105,0.0,3.0,53,0.00,,,0.00,WeatherCatV1.02B3,2013-03-14 06:56:00,
2013-03-14 02:01:00,51.0,34.9,30.26,ESE,117,0.0,2.0,54,0.00,,,0.00,WeatherCatV1.02B3,2013-03-14 07:01:00,
2013-03-14 02:06:00,50.9,34.4,30.26,ENE,71,0.0,0.0,53,0.00,,,0.00,WeatherCatV1.02B3,2013-03-14 07:06:00,
2013-03-14 02:11:00,50.8,34.3,30.26,ESE,111,0.0,1.0,53,0.00,,,0.00,WeatherCatV1.02B3,2013-03-14 07:11:00,
2013-03-14 02:25:00,50.8,34.8,30.26,SE,128,0.0,3.0,54,0.00,,,0.00,WeatherCatV1.02B3,2013-03-14 07:25:00,
2013-03-14 02:39:00,50.6,34.6,30.26,SE,140,0.0,0.0,54,0.00,,,0.00,WeatherCatV1.02B3,2013-03-14 07:39:00,
2013-03-14 02:44:00,50.5,34.9,30.26,SE,141,0.0,0.0,55,0.00,,,0.00,WeatherCatV1.02B3,2013-03-14 07:44:00,
2013-03-14 02:49:00,50.4,34.8,30.26,South,181,0.0,2.0,55,0.00,,,0.00,WeatherCatV1.02B3,2013-03-14 07:49:00,
2013-03-14 02:54:00,50.2,34.7,30.26,SSE,155,0.0,0.0,55,0.00,,,0.00,WeatherCatV1.02B3,2013-03-14 07:54:00,
2013-03-14 02:59:00,50.1,35.0,30.25,SSE,164,0.0,0.0,56,0.00,,,0.00,WeatherCatV1.02B3,2013-03-14 07:59:00,
2013-03-14 03:04:00,49.9,34.8,30.25,SSE,155,0.0,1.0,56,0.00,,,0.00,WeatherCatV1.02B3,2013-03-14 08:04:00,
2013-03-14 03:17:00,49.6,35.0,30.25,SE,144,0.0,0.0,57,0.00,,,0.00,WeatherCatV1.02B3,2013-03-14 08:17:00,
2013-03-14 03:22:00,49.4,35.2,30.25,ESE,121,0.0,0.0,58,0.00,,,0.00,WeatherCatV1.02B3,2013-03-14 08:22:00,
2013-03-14 03:27:00,49.2,35.1,30.25,SSE,160,0.0,0.0,58,0.00,,,0.00,WeatherCatV1.02B3,2013-03-14 08:27:00,
2013-03-14 03:32:00,49.1,35.4,30.25,SSE,153,0.0,0.0,59,0.00,,,0.00,WeatherCatV1.02B3,2013-03-14 08:32:00,
2013-03-14 03:37:00,48.9,35.2,30.25,SE,127,0.0,1.0,59,0.00,,,0.00,WeatherCatV1.02B3,2013-03-14 08:37:00,
2013-03-14 03:42:00,48.8,35.1,30.25,SSE,154,0.0,0.0,59,0.00,,,0.00,WeatherCatV1.02B3,2013-03-14 08:42:00,
2013-03-14 03:47:00,48.8,34.7,30.25,SSE,154,0.0,0.0,58,0.00,,,0.00,WeatherCatV1.02B3,2013-03-14 08:47:00,
2013-03-14 03:52:00,48.8,34.7,30.25,SE,127,0.0,3.0,58,0.00,,,0.00,WeatherCatV1.02B3,2013-03-14 08:52:00,
2013-03-14 03:57:00,48.8,35.1,30.25,SE,132,0.0,2.0,59,0.00,,,0.00,WeatherCatV1.02B3,2013-03-14 08:57:00,
2013-03-14 04:02:00,48.7,35.0,30.25,SE,139,0.0,2.0,59,0.00,,,0.00,WeatherCatV1.02B3,2013-03-14 09:02:00,
2013-03-14 04:07:00,48.6,35.3,30.25,SE,126,1.0,2.0,60,0.00,,,0.00,WeatherCatV1.02B3,2013-03-14 09:07:00,
2013-03-14 04:12:00,48.6,35.3,30.25,SE,142,0.0,2.0,60,0.00,,,0.00,WeatherCatV1.02B3,2013-03-14 09:12:00,
2013-03-14 04:17:00,48.5,34.8,30.24,SSE,162,0.0,4.0,59,0.00,,,0.00,WeatherCatV1.02B3,2013-03-14 09:17:00,
2013-03-14 04:22:00,48.6,34.9,30.24,SE,135,0.0,5.0,59,0.00,,,0.00,WeatherCatV1.02B3,2013-03-14 09:22:00,
2013-03-14 04:27:00,48.8,35.1,30.24,SSE,168,1.0,2.0,59,0.00,,,0.00,WeatherCatV1.02B3,2013-03-14 09:27:00,
2013-03-14 04:32:00,48.9,34.8,30.24,SSE,160,0.0,3.0,58,0.00,,,0.00,WeatherCatV1.02B3,2013-03-14 09:32:00,
2013-03-14 04:37:00,49.1,35.0,30.24,SSE,159,2.0,3.0,58,0.00,,,0.00,WeatherCatV1.02B3,2013-03-14 09:37:00,
2013-03-14 04:42:00,49.3,34.7,30.24,SSE,165,6.0,10.0,57,0.00,,,0.00,WeatherCatV1.02B3,2013-03-14 09:42:00,
2013-03-14 04:47:00,49.4,34.8,30.24,SSE,149,3.0,5.0,57,0.00,,,0.00,WeatherCatV1.02B3,2013-03-14 09:47:00,
2013-03-14 04:52:00,49.6,34.6,30.24,SSE,167,5.0,5.0,56,0.00,,,0.00,WeatherCatV1.02B3,2013-03-14 09:52:00,
2013-03-14 04:57:00,49.7,35.1,30.24,SSE,159,0.0,6.0,57,0.00,,,0.00,WeatherCatV1.02B3,2013-03-14 09:57:00,
2013-03-14 05:02:00,49.8,34.7,30.24,South,186,0.0,4.0,56,0.00,,,0.00,WeatherCatV1.02B3,2013-03-14 10:02:00,
2013-03-14 05:07:00,49.7,35.1,30.24,SE,128,1.0,4.0,57,0.00,,,0.00,WeatherCatV1.02B3,2013-03-14 10:07:00,
2013-03-14 05:12:00,49.7,35.1,30.24,South,173,0.0,4.0,57,0.00,,,0.00,WeatherCatV1.02B3,2013-03-14 10:12:00,
2013-03-14 05:17:00,49.6,35.0,30.24,SSE,167,0.0,1.0,57,0.00,,,0.00,WeatherCatV1.02B3,2013-03-14 10:17:00,
2013-03-14 05:22:00,49.5,35.3,30.24,SSE,157,0.0,2.0,58,0.00,,,0.00,WeatherCatV1.02B3,2013-03-14 10:22:00,
2013-03-14 05:27:00,49.2,35.1,30.24,SSE,159,0.0,0.0,58,0.00,,,0.00,WeatherCatV1.02B3,2013-03-14 10:27:00,
2013-03-14 05:32:00,49.0,35.3,30.24,South,173,0.0,2.0,59,0.00,,,0.00,WeatherCatV1.02B3,2013-03-14 10:32:00,
2013-03-14 05:37:00,48.8,35.1,30.24,SSE,148,0.0,1.0,59,0.00,,,0.00,WeatherCatV1.02B3,2013-03-14 10:37:00,
2013-03-14 05:42:00,48.7,35.0,30.24,SSE,148,0.0,2.0,59,0.00,,,0.00,WeatherCatV1.02B3,2013-03-14 10:42:00,
2013-03-14 05:47:00,48.6,35.3,30.23,SSE,153,1.0,3.0,60,0.00,,,0.00,WeatherCatV1.02B3,2013-03-14 10:47:00,
2013-03-14 05:52:00,48.5,35.7,30.23,SSE,149,0.0,1.0,61,0.00,,,0.00,WeatherCatV1.02B3,2013-03-14 10:52:00,
2013-03-14 05:57:00,48.5,35.7,30.23,SSE,167,0.0,0.0,61,0.00,,,0.00,WeatherCatV1.02B3,2013-03-14 10:57:00,
2013-03-14 06:02:00,48.3,35.5,30.23,SSE,157,0.0,4.0,61,0.00,,,0.00,WeatherCatV1.02B3,2013-03-14 11:02:00,
2013-03-14 06:07:00,48.3,35.5,30.23,South,182,0.0,4.0,61,0.00,,,0.00,WeatherCatV1.02B3,2013-03-14 11:07:00,
2013-03-14 06:12:00,48.4,35.6,30.23,South,173,0.0,4.0,61,0.00,,,0.00,WeatherCatV1.02B3,2013-03-14 11:12:00,
2013-03-14 06:17:00,48.4,35.6,30.23,SE,143,0.0,5.0,61,0.00,,,0.00,WeatherCatV1.02B3,2013-03-14 11:17:00,
2013-03-14 06:22:00,48.4,36.0,30.23,SSE,165,0.0,1.0,62,0.00,,,0.00,WeatherCatV1.02B3,2013-03-14 11:22:00,
2013-03-14 06:27:00,48.3,35.9,30.23,SSE,164,0.0,4.0,62,0.00,,,0.00,WeatherCatV1.02B3,2013-03-14 11:27:00,
2013-03-14 06:32:00,48.2,35.8,30.24,SSE,156,0.0,2.0,62,0.00,,,0.00,WeatherCatV1.02B3,2013-03-14 11:32:00,
2013-03-14 06:37:00,48.2,35.8,30.24,SSE,167,0.0,5.0,62,0.00,,,0.00,WeatherCatV1.02B3,2013-03-14 11:37:00,
2013-03-14 06:42:00,48.1,36.1,30.24,SSE,163,0.0,5.0,63,0.00,,,0.00,WeatherCatV1.02B3,2013-03-14 11:42:00,
2013-03-14 06:47:00,47.9,35.9,30.24,SSE,164,0.0,2.0,63,0.00,,,0.00,WeatherCatV1.02B3,2013-03-14 11:47:00,
2013-03-14 06:52:00,47.8,36.2,30.24,SE,142,0.0,3.0,64,0.00,,,0.00,WeatherCatV1.02B3,2013-03-14 11:52:00,
2013-03-14 06:57:00,47.7,36.1,30.24,SSE,158,0.0,1.0,64,0.00,,,0.00,WeatherCatV1.02B3,2013-03-14 11:57:00,
2013-03-14 07:02:00,47.7,36.1,30.24,SSE,159,0.0,2.0,64,0.00,,,0.00,WeatherCatV1.02B3,2013-03-14 12:02:00,
2013-03-14 07:07:00,47.6,36.0,30.24,SSE,151,0.0,4.0,64,0.00,,,0.00,WeatherCatV1.02B3,2013-03-14 12:07:00,
2013-03-14 07:12:00,47.6,36.0,30.24,SSE,155,3.0,4.0,64,0.00,,,0.00,WeatherCatV1.02B3,2013-03-14 12:12:00,
2013-03-14 07:17:00,47.6,36.0,30.25,South,177,1.0,4.0,64,0.00,,,0.00,WeatherCatV1.02B3,2013-03-14 12:17:00,
2013-03-14 07:22:00,47.7,36.5,30.25,South,170,0.0,7.0,65,0.00,,,0.00,WeatherCatV1.02B3,2013-03-14 12:22:00,
2013-03-14 07:27:00,47.6,36.4,30.25,SE,142,0.0,3.0,65,0.00,,,0.00,WeatherCatV1.02B3,2013-03-14 12:27:00,
2013-03-14 07:32:00,47.6,36.4,30.25,SSE,156,0.0,3.0,65,0.00,,,0.00,WeatherCatV1.02B3,2013-03-14 12:32:00,
2013-03-14 07:37:00,47.6,36.4,30.25,SE,144,0.0,3.0,65,0.00,,,0.00,WeatherCatV1.02B3,2013-03-14 12:37:00,
2013-03-14 07:42:00,47.6,36.4,30.25,South,189,0.0,4.0,65,0.00,,,0.00,WeatherCatV1.02B3,2013-03-14 12:42:00,
2013-03-14 07:47:00,47.6,36.4,30.25,SSE,157,0.0,4.0,65,0.00,,,0.00,WeatherCatV1.02B3,2013-03-14 12:47:00,
2013-03-14 07:52:00,47.6,36.4,30.25,SSE,168,0.0,4.0,65,0.00,,,0.00,WeatherCatV1.02B3,2013-03-14 12:52:00,
2013-03-14 07:57:00,47.6,36.8,30.25,South,169,0.0,4.0,66,0.00,,,0.00,WeatherCatV1.02B3,2013-03-14 12:57:00,
2013-03-14 08:02:00,47.6,36.8,30.26,South,179,0.0,2.0,66,0.00,,,0.00,WeatherCatV1.02B3,2013-03-14 13:02:00,
2013-03-14 08:07:00,47.6,36.8,30.26,SE,138,0.0,3.0,66,0.00,,,0.00,WeatherCatV1.02B3,2013-03-14 13:07:00,
2013-03-14 08:12:00,47.7,36.9,30.26,SSE,159,1.0,4.0,66,0.00,,,0.00,WeatherCatV1.02B3,2013-03-14 13:12:00,
2013-03-14 08:17:00,47.8,37.0,30.26,SSE,162,0.0,1.0,66,0.00,,,0.00,WeatherCatV1.02B3,2013-03-14 13:17:00,
2013-03-14 08:22:00,47.9,37.1,30.26,SE,146,0.0,1.0,66,0.00,,,0.00,WeatherCatV1.02B3,2013-03-14 13:22:00,
2013-03-14 08:27:00,48.1,37.7,30.26,SE,146,0.0,0.0,67,0.00,,,0.00,WeatherCatV1.02B3,2013-03-14 13:27:00,
2013-03-14 08:32:00,48.3,37.5,30.27,South,181,3.0,5.0,66,0.00,,,0.00,WeatherCatV1.02B3,2013-03-14 13:32:00,
2013-03-14 08:37:00,48.7,37.9,30.27,South,191,0.0,5.0,66,0.00,,,0.00,WeatherCatV1.02B3,2013-03-14 13:37:00,
2013-03-14 08:42:00,49.1,38.2,30.27,South,181,0.0,5.0,66,0.00,,,0.00,WeatherCatV1.02B3,2013-03-14 13:42:00,
2013-03-14 08:47:00,49.7,38.4,30.28,SSE,167,0.0,5.0,65,0.00,,,0.00,WeatherCatV1.02B3,2013-03-14 13:47:00,
2013-03-14 08:52:00,50.3,38.6,30.28,SSE,164,0.0,4.0,64,0.00,,,0.00,WeatherCatV1.02B3,2013-03-14 13:52:00,
2013-03-14 08:57:00,50.8,38.7,30.28,South,183,3.0,6.0,63,0.00,,,0.00,WeatherCatV1.02B3,2013-03-14 13:57:00,
2013-03-14 09:02:00,51.2,38.6,30.28,South,178,0.0,6.0,62,0.00,,,0.00,WeatherCatV1.02B3,2013-03-14 14:02:00,
2013-03-14 09:07:00,51.7,39.5,30.28,SSW,209,0.0,5.0,63,0.00,,,0.00,WeatherCatV1.02B3,2013-03-14 14:07:00,
2013-03-14 09:12:00,52.3,39.7,30.28,South,186,2.0,9.0,62,0.00,,,0.00,WeatherCatV1.02B3,2013-03-14 14:12:00,
2013-03-14 09:17:00,52.8,39.7,30.29,SSW,213,7.0,7.0,61,0.00,,,0.00,WeatherCatV1.02B3,2013-03-14 14:17:00,
2013-03-14 09:22:00,53.4,39.9,30.29,SW,222,1.0,7.0,60,0.00,,,0.00,WeatherCatV1.02B3,2013-03-14 14:22:00,
2013-03-14 09:27:00,54.0,40.9,30.29,SSW,205,0.0,6.0,61,0.00,,,0.00,WeatherCatV1.02B3,2013-03-14 14:27:00,
2013-03-14 09:32:00,54.4,40.4,30.29,SSW,198,0.0,7.0,59,0.00,,,0.00,WeatherCatV1.02B3,2013-03-14 14:32:00,
2013-03-14 09:37:00,54.7,41.1,30.29,SSW,196,0.0,6.0,60,0.00,,,0.00,WeatherCatV1.02B3,2013-03-14 14:37:00,
2013-03-14 09:42:00,55.1,41.0,30.29,WSW,239,5.0,8.0,59,0.00,,,0.00,WeatherCatV1.02B3,2013-03-14 14:42:00,
2013-03-14 09:47:00,55.6,41.5,30.29,SW,227,6.0,10.0,59,0.00,,,0.00,WeatherCatV1.02B3,2013-03-14 14:47:00,
2013-03-14 09:52:00,55.9,41.3,30.29,SSW,212,1.0,7.0,58,0.00,,,0.00,WeatherCatV1.02B3,2013-03-14 14:52:00,
2013-03-14 09:57:00,56.2,41.6,30.29,SW,232,6.0,7.0,58,0.00,,,0.00,WeatherCatV1.02B3,2013-03-14 14:57:00,
2013-03-14 10:02:00,56.6,42.0,30.29,South,174,0.0,10.0,58,0.00,,,0.00,WeatherCatV1.02B3,2013-03-14 15:02:00,
2013-03-14 10:07:00,57.3,42.2,30.29,SW,221,3.0,11.0,57,0.00,,,0.00,WeatherCatV1.02B3,2013-03-14 15:07:00,
2013-03-14 10:12:00,57.8,42.2,30.29,WNW,282,4.0,12.0,56,0.00,,,0.00,WeatherCatV1.02B3,2013-03-14 15:12:00,
2013-03-14 10:17:00,58.3,43.1,30.28,South,187,0.0,5.0,57,0.00,,,0.00,WeatherCatV1.02B3,2013-03-14 15:17:00,
2013-03-14 10:22:00,58.9,43.2,30.28,SW,215,3.0,11.0,56,0.00,,,0.00,WeatherCatV1.02B3,2013-03-14 15:22:00,
2013-03-14 10:27:00,59.7,44.0,30.28,SW,219,9.0,13.0,56,0.00,,,0.00,WeatherCatV1.02B3,2013-03-14 15:27:00,
2013-03-14 10:32:00,60.2,44.4,30.28,WSW,239,3.0,10.0,56,0.00,,,0.00,WeatherCatV1.02B3,2013-03-14 15:32:00,
2013-03-14 10:37:00,60.7,44.4,30.28,South,185,13.0,13.0,55,0.00,,,0.00,WeatherCatV1.02B3,2013-03-14 15:37:00,
2013-03-14 10:42:00,61.4,44.1,30.28,SSW,209,4.0,6.0,53,0.00,,,0.00,WeatherCatV1.02B3,2013-03-14 15:42:00,
2013-03-14 10:47:00,61.9,44.6,30.28,SSW,194,9.0,13.0,53,0.00,,,0.00,WeatherCatV1.02B3,2013-03-14 15:47:00,
2013-03-14 10:52:00,62.4,44.5,30.28,SW,219,8.0,15.0,52,0.00,,,0.00,WeatherCatV1.02B3,2013-03-14 15:52:00,
2013-03-14 10:57:00,63.1,44.7,30.28,SSW,213,11.0,14.0,51,0.00,,,0.00,WeatherCatV1.02B3,2013-03-14 15:57:00,
2013-03-14 11:02:00,63.4,45.0,30.27,SSW,207,1.0,12.0,51,0.00,,,0.00,WeatherCatV1.02B3,2013-03-14 16:02:00,
2013-03-14 11:07:00,64.4,45.9,30.27,South,175,5.0,11.0,51,0.00,,,0.00,WeatherCatV1.02B3,2013-03-14 16:07:00,
2013-03-14 11:12:00,65.6,45.4,30.27,SSW,212,9.0,11.0,48,0.00,,,0.00,WeatherCatV1.02B3,2013-03-14 16:12:00,
2013-03-14 11:17:00,66.4,44.4,30.27,SSW,202,5.0,19.0,45,0.00,,,0.00,WeatherCatV1.02B3,2013-03-14 16:17:00,
2013-03-14 11:22:00,66.9,43.1,30.27,SW,227,12.0,16.0,42,0.00,,,0.00,WeatherCatV1.02B3,2013-03-14 16:22:00,
2013-03-14 11:27:00,67.4,43.5,30.27,SSW,207,6.0,16.0,42,0.00,,,0.00,WeatherCatV1.02B3,2013-03-14 16:27:00,
2013-03-14 11:32:00,67.6,43.1,30.26,SW,225,7.0,13.0,41,0.00,,,0.00,WeatherCatV1.02B3,2013-03-14 16:32:00,
2013-03-14 11:37:00,67.9,43.3,30.26,SSW,211,11.0,17.0,41,0.00,,,0.00,WeatherCatV1.02B3,2013-03-14 16:37:00,
2013-03-14 11:42:00,68.0,42.8,30.26,SW,234,9.0,16.0,40,0.00,,,0.00,WeatherCatV1.02B3,2013-03-14 16:42:00,
2013-03-14 11:47:00,68.5,43.2,30.26,WSW,254,8.0,19.0,40,0.00,,,0.00,WeatherCatV1.02B3,2013-03-14 16:47:00,
2013-03-14 11:52:00,68.7,43.4,30.26,SW,218,10.0,12.0,40,0.00,,,0.00,WeatherCatV1.02B3,2013-03-14 16:52:00,
2013-03-14 11:57:00,68.9,43.6,30.26,SW,230,9.0,16.0,40,0.00,,,0.00,WeatherCatV1.02B3,2013-03-14 16:57:00,
2013-03-14 12:02:00,69.1,43.8,30.26,SSW,208,8.0,16.0,40,0.00,,,0.00,WeatherCatV1.02B3,2013-03-14 17:02:00,
2013-03-14 12:07:00,69.5,42.8,30.26,WSW,238,12.0,17.0,38,0.00,,,0.00,WeatherCatV1.02B3,2013-03-14 17:07:00,
2013-03-14 12:12:00,70.1,44.0,30.26,SW,224,14.0,18.0,39,0.00,,,0.00,WeatherCatV1.02B3,2013-03-14 17:12:00,
2013-03-14 12:17:00,70.5,43.0,30.25,WSW,242,7.0,16.0,37,0.00,,,0.00,WeatherCatV1.02B3,2013-03-14 17:17:00,
2013-03-14 12:22:00,70.6,42.3,30.25,SW,234,21.0,21.0,36,0.00,,,0.00,WeatherCatV1.02B3,2013-03-14 17:22:00,
2013-03-14 12:27:00,70.6,41.6,30.25,SSW,209,13.0,22.0,35,0.00,,,0.00,WeatherCatV1.02B3,2013-03-14 17:27:00,
2013-03-14 12:32:00,70.7,42.4,30.25,SW,234,12.0,16.0,36,0.00,,,0.00,WeatherCatV1.02B3,2013-03-14 17:32:00,
2013-03-14 12:37:00,71.0,42.7,30.25,West,262,7.0,17.0,36,0.00,,,0.00,WeatherCatV1.02B3,2013-03-14 17:37:00,
2013-03-14 12:42:00,71.1,43.5,30.25,SSW,211,9.0,16.0,37,0.00,,,0.00,WeatherCatV1.02B3,2013-03-14 17:42:00,
2013-03-14 12:47:00,71.0,43.4,30.24,SSW,201,10.0,13.0,37,0.00,,,0.00,WeatherCatV1.02B3,2013-03-14 17:47:00,
2013-03-14 12:52:00,71.2,44.3,30.24,SSW,194,7.0,22.0,38,0.00,,,0.00,WeatherCatV1.02B3,2013-03-14 17:52:00,
2013-03-14 12:57:00,71.4,43.8,30.24,SW,225,10.0,14.0,37,0.00,,,0.00,WeatherCatV1.02B3,2013-03-14 17:57:00,
2013-03-14 13:02:00,71.5,43.1,30.24,SW,226,9.0,19.0,36,0.00,,,0.00,WeatherCatV1.02B3,2013-03-14 18:02:00,
2013-03-14 13:07:00,71.8,43.4,30.24,SW,236,7.0,14.0,36,0.00,,,0.00,WeatherCatV1.02B3,2013-03-14 18:07:00,
2013-03-14 13:12:00,72.1,42.9,30.24,WSW,242,6.0,14.0,35,0.00,,,0.00,WeatherCatV1.02B3,2013-03-14 18:12:00,
2013-03-14 13:17:00,72.4,43.9,30.23,SSW,198,6.0,15.0,36,0.00,,,0.00,WeatherCatV1.02B3,2013-03-14 18:17:00,
2013-03-14 13:22:00,72.6,43.4,30.23,SW,232,7.0,15.0,35,0.00,,,0.00,WeatherCatV1.02B3,2013-03-14 18:22:00,
2013-03-14 13:27:00,72.7,42.7,30.23,SW,218,11.0,18.0,34,0.00,,,0.00,WeatherCatV1.02B3,2013-03-14 18:27:00,
2013-03-14 13:32:00,72.6,43.4,30.23,SW,232,7.0,16.0,35,0.00,,,0.00,WeatherCatV1.02B3,2013-03-14 18:32:00,
2013-03-14 13:37:00,72.7,44.2,30.23,SSW,209,11.0,19.0,36,0.00,,,0.00,WeatherCatV1.02B3,2013-03-14 18:37:00,
2013-03-14 13:42:00,72.9,44.4,30.23,SSW,203,13.0,13.0,36,0.00,,,0.00,WeatherCatV1.02B3,2013-03-14 18:42:00,
2013-03-14 13:47:00,73.1,44.5,30.22,SW,215,6.0,13.0,36,0.00,,,0.00,WeatherCatV1.02B3,2013-03-14 18:47:00,
2013-03-14 13:52:00,73.4,44.8,30.22,SSW,205,7.0,16.0,36,0.00,,,0.00,WeatherCatV1.02B3,2013-03-14 18:52:00,
2013-03-14 13:57:00,73.7,44.3,30.22,South,182,6.0,13.0,35,0.00,,,0.00,WeatherCatV1.02B3,2013-03-14 18:57:00,
2013-03-14 14:02:00,73.6,45.7,30.21,WSW,239,5.0,7.0,37,0.00,,,0.00,WeatherCatV1.02B3,2013-03-14 19:02:00,
2013-03-14 14:07:00,74.0,44.6,30.21,South,186,13.0,16.0,35,0.00,,,0.00,WeatherCatV1.02B3,2013-03-14 19:07:00,
2013-03-14 14:12:00,74.1,46.1,30.21,SSW,200,9.0,14.0,37,0.00,,,0.00,WeatherCatV1.02B3,2013-03-14 19:12:00,
2013-03-14 14:17:00,74.4,44.9,30.20,South,175,0.0,13.0,35,0.00,,,0.00,WeatherCatV1.02B3,2013-03-14 19:17:00,
2013-03-14 14:22:00,74.8,45.3,30.20,SSW,200,1.0,14.0,35,0.00,,,0.00,WeatherCatV1.02B3,2013-03-14 19:22:00,
2013-03-14 14:27:00,75.0,45.5,30.20,SW,230,12.0,20.0,35,0.00,,,0.00,WeatherCatV1.02B3,2013-03-14 19:27:00,
2013-03-14 14:32:00,75.3,46.5,30.19,South,187,12.0,14.0,36,0.00,,,0.00,WeatherCatV1.02B3,2013-03-14 19:32:00,
2013-03-14 14:37:00,75.1,45.6,30.19,South,171,10.0,17.0,35,0.00,,,0.00,WeatherCatV1.02B3,2013-03-14 19:37:00,
2013-03-14 14:42:00,74.9,45.4,30.19,SW,223,17.0,17.0,35,0.00,,,0.00,WeatherCatV1.02B3,2013-03-14 19:42:00,
2013-03-14 14:47:00,74.9,46.9,30.18,SW,236,10.0,10.0,37,0.00,,,0.00,WeatherCatV1.02B3,2013-03-14 19:47:00,
2013-03-14 14:52:00,75.3,47.2,30.18,SSW,210,7.0,14.0,37,0.00,,,0.00,WeatherCatV1.02B3,2013-03-14 19:52:00,
2013-03-14 14:57:00,75.5,46.7,30.18,SSW,196,4.0,19.0,36,0.00,,,0.00,WeatherCatV1.02B3,2013-03-14 19:57:00,
2013-03-14 15:02:00,75.8,47.7,30.17,WSW,246,3.0,11.0,37,0.00,,,0.00,WeatherCatV1.02B3,2013-03-14 20:02:00,
2013-03-14 15:07:00,75.9,47.7,30.17,South,185,4.0,15.0,37,0.00,,,0.00,WeatherCatV1.02B3,2013-03-14 20:07:00,
2013-03-14 15:12:00,75.9,47.7,30.17,SSW,207,15.0,19.0,37,0.00,,,0.00,WeatherCatV1.02B3,2013-03-14 20:12:00,
2013-03-14 15:17:00,75.4,47.3,30.16,WSW,238,10.0,16.0,37,0.00,,,0.00,WeatherCatV1.02B3,2013-03-14 20:17:00,
2013-03-14 15:22:00,75.6,48.2,30.16,SW,230,6.0,13.0,38,0.00,,,0.00,WeatherCatV1.02B3,2013-03-14 20:22:00,
2013-03-14 15:27:00,76.1,47.9,30.16,South,186,10.0,14.0,37,0.00,,,0.00,WeatherCatV1.02B3,2013-03-14 20:27:00,
2013-03-14 15:32:00,76.2,47.3,30.16,SW,217,9.0,13.0,36,0.00,,,0.00,WeatherCatV1.02B3,2013-03-14 20:32:00,
2013-03-14 15:37:00,76.2,47.3,30.16,South,191,0.0,15.0,36,0.00,,,0.00,WeatherCatV1.02B3,2013-03-14 20:37:00,
2013-03-14 15:42:00,76.3,46.6,30.16,SW,229,5.0,13.0,35,0.00,,,0.00,WeatherCatV1.02B3,2013-03-14 20:42:00,
2013-03-14 15:47:00,76.6,48.4,30.16,SSW,208,10.0,19.0,37,0.00,,,0.00,WeatherCatV1.02B3,2013-03-14 20:47:00,
2013-03-14 15:52:00,76.8,47.8,30.16,SW,225,5.0,17.0,36,0.00,,,0.00,WeatherCatV1.02B3,2013-03-14 20:52:00,
2013-03-14 15:57:00,77.2,47.4,30.16,South,177,12.0,16.0,35,0.00,,,0.00,WeatherCatV1.02B3,2013-03-14 20:57:00,
2013-03-14 16:02:00,77.1,46.5,30.15,South,180,3.0,18.0,34,0.00,,,0.00,WeatherCatV1.02B3,2013-03-14 21:02:00,
2013-03-14 16:07:00,76.9,47.1,30.15,South,174,5.0,17.0,35,0.00,,,0.00,WeatherCatV1.02B3,2013-03-14 21:07:00,
2013-03-14 16:12:00,77.0,48.0,30.15,SW,228,9.0,15.0,36,0.00,,,0.00,WeatherCatV1.02B3,2013-03-14 21:12:00,
2013-03-14 16:17:00,77.1,47.3,30.15,WSW,240,12.0,14.0,35,0.00,,,0.00,WeatherCatV1.02B3,2013-03-14 21:17:00,
2013-03-14 16:22:00,77.3,47.5,30.15,South,171,3.0,11.0,35,0.00,,,0.00,WeatherCatV1.02B3,2013-03-14 21:22:00,
2013-03-14 16:27:00,77.5,47.7,30.15,South,169,7.0,12.0,35,0.00,,,0.00,WeatherCatV1.02B3,2013-03-14 21:27:00,
2013-03-14 16:32:00,77.3,48.2,30.14,SW,234,3.0,12.0,36,0.00,,,0.00,WeatherCatV1.02B3,2013-03-14 21:32:00,
2013-03-14 16:37:00,77.3,48.2,30.14,South,186,6.0,12.0,36,0.00,,,0.00,WeatherCatV1.02B3,2013-03-14 21:37:00,
2013-03-14 16:42:00,77.4,49.1,30.14,SSE,157,3.0,7.0,37,0.00,,,0.00,WeatherCatV1.02B3,2013-03-14 21:42:00,
2013-03-14 16:47:00,77.3,48.2,30.14,SSW,212,9.0,16.0,36,0.00,,,0.00,WeatherCatV1.02B3,2013-03-14 21:47:00,
2013-03-14 16:52:00,77.1,48.8,30.14,SSW,205,10.0,16.0,37,0.00,,,0.00,WeatherCatV1.02B3,2013-03-14 21:52:00,
2013-03-14 16:58:00,77.0,48.7,30.14,SW,232,6.0,10.0,37,0.00,,,0.00,WeatherCatV1.02B3,2013-03-14 21:58:00,
2013-03-14 17:03:00,77.3,47.5,30.14,SSW,213,7.0,13.0,35,0.00,,,0.00,WeatherCatV1.02B3,2013-03-14 22:03:00,
2013-03-14 17:08:00,76.9,47.9,30.14,SSW,212,8.0,14.0,36,0.00,,,0.00,WeatherCatV1.02B3,2013-03-14 22:08:00,
2013-03-14 17:13:00,76.8,47.8,30.14,SW,221,0.0,14.0,36,0.00,,,0.00,WeatherCatV1.02B3,2013-03-14 22:13:00,
2013-03-14 17:18:00,76.8,47.8,30.13,SW,223,2.0,15.0,36,0.00,,,0.00,WeatherCatV1.02B3,2013-03-14 22:18:00,
2013-03-14 17:23:00,76.7,47.0,30.13,SSW,203,4.0,13.0,35,0.00,,,0.00,WeatherCatV1.02B3,2013-03-14 22:23:00,
2013-03-14 17:28:00,76.5,47.5,30.13,SSW,198,14.0,15.0,36,0.00,,,0.00,WeatherCatV1.02B3,2013-03-14 22:28:00,
2013-03-14 17:32:00,76.0,47.8,30.13,SW,219,3.0,10.0,37,0.00,,,0.00,WeatherCatV1.02B3,2013-03-14 22:32:00,
2013-03-14 17:37:00,75.8,47.7,30.13,SSW,211,5.0,15.0,37,0.00,,,0.00,WeatherCatV1.02B3,2013-03-14 22:37:00,
2013-03-14 17:43:00,75.6,48.2,30.13,South,185,0.0,8.0,38,0.00,,,0.00,WeatherCatV1.02B3,2013-03-14 22:43:00,
2013-03-14 17:48:00,75.5,48.1,30.13,South,187,6.0,10.0,38,0.00,,,0.00,WeatherCatV1.02B3,2013-03-14 22:48:00,
2013-03-14 17:53:00,75.3,47.9,30.13,SSW,198,5.0,14.0,38,0.00,,,0.00,WeatherCatV1.02B3,2013-03-14 22:53:00,
2013-03-14 17:58:00,75.3,47.9,30.13,SSW,208,12.0,14.0,38,0.00,,,0.00,WeatherCatV1.02B3,2013-03-14 22:58:00,
2013-03-14 18:03:00,75.1,48.4,30.13,SSE,163,10.0,10.0,39,0.00,,,0.00,WeatherCatV1.02B3,2013-03-14 23:03:00,
2013-03-14 18:08:00,74.8,48.2,30.13,SSW,193,3.0,10.0,39,0.00,,,0.00,WeatherCatV1.02B3,2013-03-14 23:08:00,
2013-03-14 18:13:00,74.6,48.7,30.13,SSW,192,5.0,6.0,40,0.00,,,0.00,WeatherCatV1.02B3,2013-03-14 23:13:00,
2013-03-14 18:18:00,74.4,48.5,30.13,South,186,6.0,15.0,40,0.00,,,0.00,WeatherCatV1.02B3,2013-03-14 23:18:00,
2013-03-14 18:23:00,74.2,48.3,30.13,SSW,194,3.0,11.0,40,0.00,,,0.00,WeatherCatV1.02B3,2013-03-14 23:23:00,
2013-03-14 18:28:00,74.0,48.8,30.13,SSW,195,4.0,11.0,41,0.00,,,0.00,WeatherCatV1.02B3,2013-03-14 23:28:00,
2013-03-14 18:33:00,73.8,48.0,30.12,SW,217,0.0,12.0,40,0.00,,,0.00,WeatherCatV1.02B3,2013-03-14 23:33:00,
2013-03-14 18:38:00,73.5,47.7,30.12,South,178,5.0,12.0,40,0.00,,,0.00,WeatherCatV1.02B3,2013-03-14 23:38:00,
2013-03-14 18:43:00,73.3,48.2,30.12,South,190,5.0,7.0,41,0.00,,,0.00,WeatherCatV1.02B3,2013-03-14 23:43:00,
2013-03-14 18:48:00,73.0,47.9,30.12,SSW,211,0.0,7.0,41,0.00,,,0.00,WeatherCatV1.02B3,2013-03-14 23:48:00,
2013-03-14 18:53:00,72.8,47.7,30.12,SSW,198,4.0,11.0,41,0.00,,,0.00,WeatherCatV1.02B3,2013-03-14 23:53:00,
2013-03-14 18:58:00,72.5,47.4,30.12,SSW,196,1.0,6.0,41,0.00,,,0.00,WeatherCatV1.02B3,2013-03-14 23:58:00,
2013-03-14 19:03:00,72.3,46.6,30.12,SSW,213,6.0,13.0,40,0.00,,,0.00,WeatherCatV1.02B3,2013-03-15 00:03:00,
2013-03-14 19:08:00,72.0,47.0,30.12,South,186,1.0,13.0,41,0.00,,,0.00,WeatherCatV1.02B3,2013-03-15 00:08:00,
2013-03-14 19:13:00,71.7,46.7,30.12,SE,143,3.0,9.0,41,0.00,,,0.00,WeatherCatV1.02B3,2013-03-15 00:13:00,
2013-03-14 19:18:00,71.3,47.6,30.12,South,175,0.0,6.0,43,0.00,,,0.00,WeatherCatV1.02B3,2013-03-15 00:18:00,
2013-03-14 19:23:00,70.9,47.9,30.12,SSE,157,2.0,4.0,44,0.00,,,0.00,WeatherCatV1.02B3,2013-03-15 00:23:00,
2013-03-14 19:28:00,70.4,47.4,30.12,South,179,0.0,5.0,44,0.00,,,0.00,WeatherCatV1.02B3,2013-03-15 00:28:00,
2013-03-14 19:33:00,70.1,47.8,30.12,South,180,0.0,4.0,45,0.00,,,0.00,WeatherCatV1.02B3,2013-03-15 00:33:00,
2013-03-14 19:38:00,69.6,47.3,30.12,SSW,197,0.0,2.0,45,0.00,,,0.00,WeatherCatV1.02B3,2013-03-15 00:38:00,
2013-03-14 19:43:00,69.2,46.9,30.12,South,169,0.0,4.0,45,0.00,,,0.00,WeatherCatV1.02B3,2013-03-15 00:43:00,
2013-03-14 19:48:00,68.8,47.2,30.12,South,180,0.0,1.0,46,0.00,,,0.00,WeatherCatV1.02B3,2013-03-15 00:48:00,
2013-03-14 19:53:00,68.5,46.9,30.12,SSE,165,0.0,1.0,46,0.00,,,0.00,WeatherCatV1.02B3,2013-03-15 00:53:00,
2013-03-14 19:58:00,68.1,47.1,30.12,SSE,162,0.0,1.0,47,0.00,,,0.00,WeatherCatV1.02B3,2013-03-15 00:58:00,
2013-03-14 20:03:00,67.7,47.3,30.12,SSW,198,3.0,4.0,48,0.00,,,0.00,WeatherCatV1.02B3,2013-03-15 01:03:00,
2013-03-14 20:08:00,67.5,47.7,30.12,South,180,0.0,1.0,49,0.00,,,0.00,WeatherCatV1.02B3,2013-03-15 01:08:00,
2013-03-14 20:13:00,67.1,47.8,30.12,SSE,150,0.0,1.0,50,0.00,,,0.00,WeatherCatV1.02B3,2013-03-15 01:13:00,
2013-03-14 20:18:00,66.8,47.6,30.12,South,169,0.0,0.0,50,0.00,,,0.00,WeatherCatV1.02B3,2013-03-15 01:18:00,
2013-03-14 20:23:00,66.6,47.9,30.12,SSE,159,1.0,3.0,51,0.00,,,0.00,WeatherCatV1.02B3,2013-03-15 01:23:00,
2013-03-14 20:28:00,66.3,47.6,30.12,South,180,0.0,6.0,51,0.00,,,0.00,WeatherCatV1.02B3,2013-03-15 01:28:00,
2013-03-14 20:33:00,66.0,47.3,30.12,SSE,153,4.0,5.0,51,0.00,,,0.00,WeatherCatV1.02B3,2013-03-15 01:33:00,
2013-03-14 20:38:00,65.8,47.2,30.12,SSE,168,0.0,2.0,51,0.00,,,0.00,WeatherCatV1.02B3,2013-03-15 01:38:00,
2013-03-14 20:43:00,65.6,47.0,30.12,South,186,0.0,3.0,51,0.00,,,0.00,WeatherCatV1.02B3,2013-03-15 01:43:00,
2013-03-14 20:48:00,65.4,46.8,30.12,SSE,148,0.0,4.0,51,0.00,,,0.00,WeatherCatV1.02B3,2013-03-15 01:48:00,
2013-03-14 20:53:00,65.4,46.8,30.12,South,178,0.0,4.0,51,0.00,,,0.00,WeatherCatV1.02B3,2013-03-15 01:53:00,
2013-03-14 20:58:00,65.3,46.7,30.12,SSE,165,0.0,5.0,51,0.00,,,0.00,WeatherCatV1.02B3,2013-03-15 01:58:00,
2013-03-14 21:03:00,65.3,46.7,30.12,SSE,158,0.0,4.0,51,0.00,,,0.00,WeatherCatV1.02B3,2013-03-15 02:03:00,
2013-03-14 21:08:00,65.2,46.6,30.12,South,169,0.0,3.0,51,0.00,,,0.00,WeatherCatV1.02B3,2013-03-15 02:08:00,
2013-03-14 21:13:00,65.0,46.9,30.12,South,175,3.0,5.0,52,0.00,,,0.00,WeatherCatV1.02B3,2013-03-15 02:13:00,
2013-03-14 21:18:00,64.8,46.8,30.11,SSE,155,0.0,0.0,52,0.00,,,0.00,WeatherCatV1.02B3,2013-03-15 02:18:00,
2013-03-14 21:23:00,64.5,46.5,30.11,South,183,0.0,2.0,52,0.00,,,0.00,WeatherCatV1.02B3,2013-03-15 02:23:00,
2013-03-14 21:28:00,64.2,46.7,30.11,SSW,209,0.0,3.0,53,0.00,,,0.00,WeatherCatV1.02B3,2013-03-15 02:28:00,
2013-03-14 21:33:00,63.9,46.4,30.11,South,177,0.0,7.0,53,0.00,,,0.00,WeatherCatV1.02B3,2013-03-15 02:33:00,
2013-03-14 21:38:00,63.6,46.6,30.11,South,186,0.0,3.0,54,0.00,,,0.00,WeatherCatV1.02B3,2013-03-15 02:38:00,
2013-03-14 21:43:00,63.4,46.9,30.11,SSW,199,0.0,3.0,55,0.00,,,0.00,WeatherCatV1.02B3,2013-03-15 02:43:00,
2013-03-14 21:48:00,63.2,46.8,30.12,South,173,0.0,8.0,55,0.00,,,0.00,WeatherCatV1.02B3,2013-03-15 02:48:00,
2013-03-14 21:53:00,63.2,46.8,30.12,SSW,196,0.0,1.0,55,0.00,,,0.00,WeatherCatV1.02B3,2013-03-15 02:53:00,
2013-03-14 21:58:00,63.1,46.7,30.12,SSW,197,0.0,3.0,55,0.00,,,0.00,WeatherCatV1.02B3,2013-03-15 02:58:00,
2013-03-14 22:03:00,63.1,46.7,30.12,South,184,0.0,5.0,55,0.00,,,0.00,WeatherCatV1.02B3,2013-03-15 03:03:00,
2013-03-14 22:08:00,63.1,46.7,30.12,SSW,195,0.0,6.0,55,0.00,,,0.00,WeatherCatV1.02B3,2013-03-15 03:08:00,
2013-03-14 22:13:00,63.1,46.7,30.12,SW,224,4.0,6.0,55,0.00,,,0.00,WeatherCatV1.02B3,2013-03-15 03:13:00,
2013-03-14 22:18:00,63.1,46.7,30.11,South,182,0.0,0.0,55,0.00,,,0.00,WeatherCatV1.02B3,2013-03-15 03:18:00,
2013-03-14 22:23:00,62.9,47.0,30.11,South,174,2.0,2.0,56,0.00,,,0.00,WeatherCatV1.02B3,2013-03-15 03:23:00,
2013-03-14 22:28:00,62.7,46.8,30.11,South,174,1.0,1.0,56,0.00,,,0.00,WeatherCatV1.02B3,2013-03-15 03:28:00,
2013-03-14 22:33:00,62.3,46.9,30.11,South,175,1.0,3.0,57,0.00,,,0.00,WeatherCatV1.02B3,2013-03-15 03:33:00,
2013-03-14 22:38:00,61.8,46.4,30.11,South,189,1.0,3.0,57,0.00,,,0.00,WeatherCatV1.02B3,2013-03-15 03:38:00,
2013-03-14 22:43:00,61.4,46.5,30.11,SSE,166,3.0,3.0,58,0.00,,,0.00,WeatherCatV1.02B3,2013-03-15 03:43:00,
2013-03-14 22:48:00,61.1,46.2,30.12,SSE,160,1.0,2.0,58,0.00,,,0.00,WeatherCatV1.02B3,2013-03-15 03:48:00,
2013-03-14 22:53:00,60.8,46.4,30.12,SSE,152,3.0,4.0,59,0.00,,,0.00,WeatherCatV1.02B3,2013-03-15 03:53:00,
2013-03-14 22:58:00,60.4,46.0,30.12,SSE,155,4.0,4.0,59,0.00,,,0.00,WeatherCatV1.02B3,2013-03-15 03:58:00,
2013-03-14 23:00:00,60.4,46.0,30.12,SSE,168,2.0,5.0,59,0.00,,,0.00,WeatherCatV1.02B3,2013-03-15 04:00:00,
2013-03-14 23:01:00,60.3,45.9,30.12,SSE,165,3.0,4.0,59,0.00,,,0.00,WeatherCatV1.02B3,2013-03-15 04:01:00,
2013-03-14 23:06:00,60.2,46.3,30.12,SSW,192,0.0,1.0,60,0.00,,,0.00,WeatherCatV1.02B3,2013-03-15 04:06:00,
2013-03-14 23:11:00,60.3,46.4,30.12,South,184,0.0,5.0,60,0.00,,,0.00,WeatherCatV1.02B3,2013-03-15 04:11:00,
2013-03-14 23:16:00,60.4,46.4,30.10,South,184,1.0,3.0,60,0.00,,,0.00,WeatherCatV1.02B3,2013-03-15 04:16:00,
2013-03-14 23:21:00,60.6,46.2,30.10,SE,144,0.0,6.0,59,0.00,,,0.00,WeatherCatV1.02B3,2013-03-15 04:21:00,
2013-03-14 23:26:00,60.7,46.3,30.10,South,187,0.0,3.0,59,0.00,,,0.00,WeatherCatV1.02B3,2013-03-15 04:26:00,
2013-03-14 23:31:00,60.7,46.3,30.10,SSE,158,2.0,7.0,59,0.00,,,0.00,WeatherCatV1.02B3,2013-03-15 04:31:00,
2013-03-14 23:36:00,60.7,46.3,30.10,SSW,203,0.0,2.0,59,0.00,,,0.00,WeatherCatV1.02B3,2013-03-15 04:36:00,
2013-03-14 23:41:00,60.6,46.6,30.10,South,180,4.0,6.0,60,0.00,,,0.00,WeatherCatV1.02B3,2013-03-15 04:41:00,
2013-03-14 23:46:00,60.5,46.5,30.10,SSW,194,0.0,3.0,60,0.00,,,0.00,WeatherCatV1.02B3,2013-03-15 04:46:00,
2013-03-14 23:51:00,60.5,46.5,30.10,SE,143,0.0,6.0,60,0.00,,,0.00,WeatherCatV1.02B3,2013-03-15 04:51:00,
2013-03-14 23:56:00,60.5,46.5,30.10,South,180,2.0,5.0,60,0.00,,,0.00,WeatherCatV1.02B3,2013-03-15 04:56:00,